Year,Month,Day,Hour,Minute,Value (Times are PST for windspeed in km/hr)
2006,12,24,00,00,5.70
2006,12,24,00,01,11.50
2006,12,24,00,02,8.60
2006,12,24,00,03,5.20
2006,12,24,00,04,6.00
2006,12,24,00,05,5.60
2006,12,24,00,06,6.50
2006,12,24,00,07,11.00
2006,12,24,00,08,18.90
2006,12,24,00,09,21.30
2006,12,24,00,10,19.50
2006,12,24,00,11,12.40
2006,12,24,00,12,14.90
2006,12,24,00,13,11.30
2006,12,24,00,14,17.00
2006,12,24,00,15,10.00
2006,12,24,00,16,12.90
2006,12,24,00,17,9.70
2006,12,24,00,18,8.10
2006,12,24,00,19,7.30
2006,12,24,00,20,10.30
2006,12,24,00,21,9.10
2006,12,24,00,22,10.20
2006,12,24,00,23,7.40
2006,12,24,00,24,7.60
2006,12,24,00,25,8.40
2006,12,24,00,26,8.90
2006,12,24,00,27,6.50
2006,12,24,00,28,6.00
2006,12,24,00,29,9.40
2006,12,24,00,30,13.60
2006,12,24,00,31,10.00
2006,12,24,00,32,7.20
2006,12,24,00,33,11.70
2006,12,24,00,34,10.40
2006,12,24,00,35,8.60
2006,12,24,00,36,18.10
2006,12,24,00,37,14.80
2006,12,24,00,38,15.10
2006,12,24,00,39,10.90
2006,12,24,00,40,12.30
2006,12,24,00,41,15.50
2006,12,24,00,42,10.40
2006,12,24,00,43,10.00
2006,12,24,00,44,14.00
2006,12,24,00,45,16.30
2006,12,24,00,46,9.70
2006,12,24,00,47,9.00
2006,12,24,00,48,12.20
2006,12,24,00,49,15.70
2006,12,24,00,50,14.10
2006,12,24,00,51,11.10
2006,12,24,00,52,9.60
2006,12,24,00,53,6.40
2006,12,24,00,54,8.10
2006,12,24,00,55,12.40
2006,12,24,00,56,6.10
2006,12,24,00,57,6.00
2006,12,24,00,58,6.20
2006,12,24,00,59,8.10
2006,12,24,01,00,9.60
2006,12,24,01,01,12.20
2006,12,24,01,02,13.00
2006,12,24,01,03,11.70
2006,12,24,01,04,4.70
2006,12,24,01,05,5.90
2006,12,24,01,06,5.90
2006,12,24,01,07,7.40
2006,12,24,01,08,11.60
2006,12,24,01,09,8.30
2006,12,24,01,10,9.70
2006,12,24,01,11,6.30
2006,12,24,01,12,5.70
2006,12,24,01,13,3.30
2006,12,24,01,14,4.10
2006,12,24,01,15,7.70
2006,12,24,01,16,7.30
2006,12,24,01,17,4.30
2006,12,24,01,18,8.30
2006,12,24,01,19,6.20
2006,12,24,01,20,8.50
2006,12,24,01,21,11.70
2006,12,24,01,22,7.20
2006,12,24,01,23,8.30
2006,12,24,01,24,10.20
2006,12,24,01,25,8.10
2006,12,24,01,26,8.70
2006,12,24,01,27,11.90
2006,12,24,01,28,8.00
2006,12,24,01,29,6.70
2006,12,24,01,30,10.20
2006,12,24,01,31,8.10
2006,12,24,01,32,10.60
2006,12,24,01,33,11.90
2006,12,24,01,34,12.40
2006,12,24,01,35,8.60
2006,12,24,01,36,11.30
2006,12,24,01,37,8.70
2006,12,24,01,38,9.90
2006,12,24,01,39,12.30
2006,12,24,01,40,12.30
2006,12,24,01,41,9.80
2006,12,24,01,42,14.00
2006,12,24,01,43,9.00
2006,12,24,01,44,11.20
2006,12,24,01,45,15.20
2006,12,24,01,46,8.50
2006,12,24,01,47,10.80
2006,12,24,01,48,10.10
2006,12,24,01,49,10.10
2006,12,24,01,50,15.50
2006,12,24,01,51,11.30
2006,12,24,01,52,9.80
2006,12,24,01,53,11.90
2006,12,24,01,54,16.50
2006,12,24,01,55,14.60
2006,12,24,01,56,14.90
2006,12,24,01,57,13.70
2006,12,24,01,58,10.10
2006,12,24,01,59,15.40
2006,12,24,02,00,16.60
2006,12,24,02,01,14.10
2006,12,24,02,02,15.10
2006,12,24,02,03,18.00
2006,12,24,02,04,26.80
2006,12,24,02,05,30.60
2006,12,24,02,06,19.60
2006,12,24,02,07,13.20
2006,12,24,02,08,12.10
2006,12,24,02,09,15.70
2006,12,24,02,10,7.40
2006,12,24,02,11,19.50
2006,12,24,02,12,19.30
2006,12,24,02,13,24.90
2006,12,24,02,14,17.40
2006,12,24,02,15,16.20
2006,12,24,02,16,15.70
2006,12,24,02,17,13.00
2006,12,24,02,18,12.10
2006,12,24,02,19,8.20
2006,12,24,02,20,15.90
2006,12,24,02,21,15.70
2006,12,24,02,22,17.30
2006,12,24,02,23,12.10
2006,12,24,02,24,9.00
2006,12,24,02,25,14.00
2006,12,24,02,26,15.10
2006,12,24,02,27,9.90
2006,12,24,02,28,11.80
2006,12,24,02,29,13.90
2006,12,24,02,30,10.20
2006,12,24,02,31,9.70
2006,12,24,02,32,14.80
2006,12,24,02,33,17.90
2006,12,24,02,34,17.70
2006,12,24,02,35,9.90
2006,12,24,02,36,10.40
2006,12,24,02,37,8.60
2006,12,24,02,38,8.10
2006,12,24,02,39,13.60
2006,12,24,02,40,14.50
2006,12,24,02,41,12.40
2006,12,24,02,42,8.50
2006,12,24,02,43,8.50
2006,12,24,02,44,12.20
2006,12,24,02,45,9.40
2006,12,24,02,46,8.10
2006,12,24,02,47,7.20
2006,12,24,02,48,9.10
2006,12,24,02,49,14.80
2006,12,24,02,50,8.60
2006,12,24,02,51,10.90
2006,12,24,02,52,12.70
2006,12,24,02,53,7.90
2006,12,24,02,54,9.30
2006,12,24,02,55,11.90
2006,12,24,02,56,13.10
2006,12,24,02,57,8.20
2006,12,24,02,58,8.10
2006,12,24,02,59,9.00
2006,12,24,03,00,9.40
2006,12,24,03,01,11.80
2006,12,24,03,02,12.20
2006,12,24,03,03,8.50
2006,12,24,03,04,12.40
2006,12,24,03,05,7.80
2006,12,24,03,06,8.10
2006,12,24,03,07,9.90
2006,12,24,03,08,9.90
2006,12,24,03,09,10.20
2006,12,24,03,10,6.70
2006,12,24,03,11,8.10
2006,12,24,03,12,7.90
2006,12,24,03,13,9.10
2006,12,24,03,14,5.00
2006,12,24,03,15,8.30
2006,12,24,03,16,8.10
2006,12,24,03,17,3.20
2006,12,24,03,18,7.70
2006,12,24,03,19,7.10
2006,12,24,03,20,7.30
2006,12,24,03,21,6.00
2006,12,24,03,22,6.40
2006,12,24,03,23,11.10
2006,12,24,03,24,6.70
2006,12,24,03,25,6.20
2006,12,24,03,26,6.00
2006,12,24,03,27,6.60
2006,12,24,03,28,8.60
2006,12,24,03,29,7.00
2006,12,24,03,30,7.70
2006,12,24,03,31,9.00
2006,12,24,03,32,11.30
2006,12,24,03,33,9.80
2006,12,24,03,34,10.20
2006,12,24,03,35,11.20
2006,12,24,03,36,11.30
2006,12,24,03,37,9.20
2006,12,24,03,38,13.80
2006,12,24,03,39,12.70
2006,12,24,03,40,11.00
2006,12,24,03,41,10.50
2006,12,24,03,42,9.50
2006,12,24,03,43,14.40
2006,12,24,03,44,8.60
2006,12,24,03,45,10.80
2006,12,24,03,46,9.70
2006,12,24,03,47,8.30
2006,12,24,03,48,9.90
2006,12,24,03,49,8.00
2006,12,24,03,50,12.10
2006,12,24,03,51,12.00
2006,12,24,03,52,10.10
2006,12,24,03,53,11.70
2006,12,24,03,54,9.90
2006,12,24,03,55,12.00
2006,12,24,03,56,6.90
2006,12,24,03,57,6.40
2006,12,24,03,58,6.60
2006,12,24,03,59,7.20
2006,12,24,04,00,6.40
2006,12,24,04,01,6.30
2006,12,24,04,02,7.10
2006,12,24,04,03,9.60
2006,12,24,04,04,8.10
2006,12,24,04,05,6.90
2006,12,24,04,06,7.50
2006,12,24,04,07,9.10
2006,12,24,04,08,8.10
2006,12,24,04,09,7.90
2006,12,24,04,10,7.40
2006,12,24,04,11,7.10
2006,12,24,04,12,4.50
2006,12,24,04,13,9.50
2006,12,24,04,14,9.90
2006,12,24,04,15,6.80
2006,12,24,04,16,6.00
2006,12,24,04,17,7.60
2006,12,24,04,18,10.80
2006,12,24,04,19,11.40
2006,12,24,04,20,10.00
2006,12,24,04,21,10.10
2006,12,24,04,22,9.10
2006,12,24,04,23,14.50
2006,12,24,04,24,14.80
2006,12,24,04,25,15.80
2006,12,24,04,26,15.60
2006,12,24,04,27,11.00
2006,12,24,04,28,11.30
2006,12,24,04,29,11.90
2006,12,24,04,30,11.50
2006,12,24,04,31,11.20
2006,12,24,04,32,12.00
2006,12,24,04,33,14.70
2006,12,24,04,34,11.30
2006,12,24,04,35,16.80
2006,12,24,04,36,15.50
2006,12,24,04,37,17.00
2006,12,24,04,38,16.60
2006,12,24,04,39,17.30
2006,12,24,04,40,16.20
2006,12,24,04,41,14.70
2006,12,24,04,42,17.50
2006,12,24,04,43,16.60
2006,12,24,04,44,12.60
2006,12,24,04,45,19.40
2006,12,24,04,46,18.60
2006,12,24,04,47,17.60
2006,12,24,04,48,15.90
2006,12,24,04,49,17.30
2006,12,24,04,50,9.80
2006,12,24,04,51,13.20
2006,12,24,04,52,14.30
2006,12,24,04,53,14.50
2006,12,24,04,54,14.10
2006,12,24,04,55,13.40
2006,12,24,04,56,8.60
2006,12,24,04,57,12.00
2006,12,24,04,58,11.80
2006,12,24,04,59,10.60
2006,12,24,05,00,15.20
2006,12,24,05,01,13.80
2006,12,24,05,02,11.10
2006,12,24,05,03,11.40
2006,12,24,05,04,10.30
2006,12,24,05,05,9.70
2006,12,24,05,06,4.40
2006,12,24,05,07,6.70
2006,12,24,05,08,7.40
2006,12,24,05,09,6.70
2006,12,24,05,10,10.70
2006,12,24,05,11,8.70
2006,12,24,05,12,11.30
2006,12,24,05,13,10.30
2006,12,24,05,14,11.30
2006,12,24,05,15,7.50
2006,12,24,05,16,9.00
2006,12,24,05,17,8.90
2006,12,24,05,18,9.50
2006,12,24,05,19,9.10
2006,12,24,05,20,9.50
2006,12,24,05,21,10.40
2006,12,24,05,22,7.00
2006,12,24,05,23,10.70
2006,12,24,05,24,10.80
2006,12,24,05,25,12.50
2006,12,24,05,26,10.30
2006,12,24,05,27,16.50
2006,12,24,05,28,15.70
2006,12,24,05,29,15.40
2006,12,24,05,30,9.70
2006,12,24,05,31,11.90
2006,12,24,05,32,12.60
2006,12,24,05,33,13.40
2006,12,24,05,34,10.30
2006,12,24,05,35,10.10
2006,12,24,05,36,11.80
2006,12,24,05,37,11.80
2006,12,24,05,38,10.90
2006,12,24,05,39,14.50
2006,12,24,05,40,14.60
2006,12,24,05,41,9.30
2006,12,24,05,42,11.40
2006,12,24,05,43,13.10
2006,12,24,05,44,11.80
2006,12,24,05,45,12.80
2006,12,24,05,46,8.00
2006,12,24,05,47,10.70
2006,12,24,05,48,12.10
2006,12,24,05,49,13.00
2006,12,24,05,50,6.40
2006,12,24,05,51,11.30
2006,12,24,05,52,12.50
2006,12,24,05,53,9.70
2006,12,24,05,54,14.60
2006,12,24,05,55,10.80
2006,12,24,05,56,7.80
2006,12,24,05,57,6.20
2006,12,24,05,58,9.00
2006,12,24,05,59,10.60
2006,12,24,06,00,10.70
2006,12,24,06,01,9.70
2006,12,24,06,02,14.30
2006,12,24,06,03,14.00
2006,12,24,06,04,14.50
2006,12,24,06,05,12.10
2006,12,24,06,06,15.10
2006,12,24,06,07,16.90
2006,12,24,06,08,11.20
2006,12,24,06,09,9.90
2006,12,24,06,10,15.20
2006,12,24,06,11,16.40
2006,12,24,06,12,14.10
2006,12,24,06,13,14.60
2006,12,24,06,14,11.70
2006,12,24,06,15,14.10
2006,12,24,06,16,12.90
2006,12,24,06,17,16.00
2006,12,24,06,18,12.40
2006,12,24,06,19,13.00
2006,12,24,06,20,14.60
2006,12,24,06,21,9.70
2006,12,24,06,22,13.50
2006,12,24,06,23,11.50
2006,12,24,06,24,9.10
2006,12,24,06,25,10.20
2006,12,24,06,26,16.90
2006,12,24,06,27,12.20
2006,12,24,06,28,8.70
2006,12,24,06,29,11.60
2006,12,24,06,30,17.10
2006,12,24,06,31,19.60
2006,12,24,06,32,15.30
2006,12,24,06,33,14.00
2006,12,24,06,34,10.60
2006,12,24,06,35,20.90
2006,12,24,06,36,12.50
2006,12,24,06,37,10.20
2006,12,24,06,38,14.00
2006,12,24,06,39,13.60
2006,12,24,06,40,18.90
2006,12,24,06,41,15.50
2006,12,24,06,42,21.20
2006,12,24,06,43,20.40
2006,12,24,06,44,13.80
2006,12,24,06,45,12.90
2006,12,24,06,46,19.20
2006,12,24,06,47,12.40
2006,12,24,06,48,13.40
2006,12,24,06,49,19.10
2006,12,24,06,50,17.60
2006,12,24,06,51,18.50
2006,12,24,06,52,18.20
2006,12,24,06,53,18.40
2006,12,24,06,54,19.90
2006,12,24,06,55,11.50
2006,12,24,06,56,13.20
2006,12,24,06,57,13.20
2006,12,24,06,58,14.30
2006,12,24,06,59,12.40
2006,12,24,07,00,17.70
2006,12,24,07,01,19.90
2006,12,24,07,02,16.60
2006,12,24,07,03,23.10
2006,12,24,07,04,12.70
2006,12,24,07,05,16.40
2006,12,24,07,06,14.70
2006,12,24,07,07,9.70
2006,12,24,07,08,16.20
2006,12,24,07,09,13.40
2006,12,24,07,10,15.50
2006,12,24,07,11,22.20
2006,12,24,07,12,20.10
2006,12,24,07,13,18.00
2006,12,24,07,14,15.70
2006,12,24,07,15,15.70
2006,12,24,07,16,17.60
2006,12,24,07,17,13.00
2006,12,24,07,18,19.60
2006,12,24,07,19,15.50
2006,12,24,07,20,16.40
2006,12,24,07,21,16.90
2006,12,24,07,22,23.70
2006,12,24,07,23,15.00
2006,12,24,07,24,14.10
2006,12,24,07,25,19.20
2006,12,24,07,26,23.30
2006,12,24,07,27,10.70
2006,12,24,07,28,19.00
2006,12,24,07,29,15.90
2006,12,24,07,30,14.10
2006,12,24,07,31,19.80
2006,12,24,07,32,18.90
2006,12,24,07,33,15.10
2006,12,24,07,34,10.80
2006,12,24,07,35,10.20
2006,12,24,07,36,11.30
2006,12,24,07,37,14.50
2006,12,24,07,38,14.80
2006,12,24,07,39,13.40
2006,12,24,07,40,15.50
2006,12,24,07,41,12.70
2006,12,24,07,42,16.20
2006,12,24,07,43,14.50
2006,12,24,07,44,18.60
2006,12,24,07,45,14.90
2006,12,24,07,46,10.10
2006,12,24,07,47,14.30
2006,12,24,07,48,14.40
2006,12,24,07,49,13.20
2006,12,24,07,50,9.30
2006,12,24,07,51,10.80
2006,12,24,07,52,12.00
2006,12,24,07,53,14.50
2006,12,24,07,54,10.30
2006,12,24,07,55,8.10
2006,12,24,07,56,12.30
2006,12,24,07,57,18.30
2006,12,24,07,58,17.50
2006,12,24,07,59,19.90
2006,12,24,08,00,16.80
2006,12,24,08,01,17.10
2006,12,24,08,02,16.90
2006,12,24,08,03,17.40
2006,12,24,08,04,18.70
2006,12,24,08,05,21.80
2006,12,24,08,06,14.80
2006,12,24,08,07,17.60
2006,12,24,08,08,13.90
2006,12,24,08,09,10.80
2006,12,24,08,10,10.80
2006,12,24,08,11,19.30
2006,12,24,08,12,18.40
2006,12,24,08,13,16.50
2006,12,24,08,14,12.30
2006,12,24,08,15,11.30
2006,12,24,08,16,13.70
2006,12,24,08,17,14.30
2006,12,24,08,18,12.10
2006,12,24,08,19,12.40
2006,12,24,08,20,10.70
2006,12,24,08,21,15.30
2006,12,24,08,22,18.60
2006,12,24,08,23,16.10
2006,12,24,08,24,14.70
2006,12,24,08,25,12.20
2006,12,24,08,26,21.10
2006,12,24,08,27,9.90
2006,12,24,08,28,5.60
2006,12,24,08,29,14.50
2006,12,24,08,30,19.60
2006,12,24,08,31,11.80
2006,12,24,08,32,15.00
2006,12,24,08,33,11.90
2006,12,24,08,34,15.40
2006,12,24,08,35,18.30
2006,12,24,08,36,17.30
2006,12,24,08,37,17.30
2006,12,24,08,38,18.70
2006,12,24,08,39,18.20
2006,12,24,08,40,15.70
2006,12,24,08,41,15.90
2006,12,24,08,42,18.80
2006,12,24,08,43,19.20
2006,12,24,08,44,12.70
2006,12,24,08,45,18.30
2006,12,24,08,46,16.60
2006,12,24,08,47,16.00
2006,12,24,08,48,20.80
2006,12,24,08,49,20.80
2006,12,24,08,50,23.30
2006,12,24,08,51,25.00
2006,12,24,08,52,26.20
2006,12,24,08,53,20.70
2006,12,24,08,54,24.30
2006,12,24,08,55,20.90
2006,12,24,08,56,29.90
2006,12,24,08,57,20.80
2006,12,24,08,58,23.30
2006,12,24,08,59,28.20
2006,12,24,09,00,31.10
2006,12,24,09,01,24.60
2006,12,24,09,02,18.90
2006,12,24,09,03,18.80
2006,12,24,09,04,25.00
2006,12,24,09,05,13.60
2006,12,24,09,06,23.70
2006,12,24,09,07,23.00
2006,12,24,09,08,22.00
2006,12,24,09,09,25.10
2006,12,24,09,10,28.70
2006,12,24,09,11,27.50
2006,12,24,09,12,23.00
2006,12,24,09,13,20.20
2006,12,24,09,14,25.90
2006,12,24,09,15,18.80
2006,12,24,09,16,23.30
2006,12,24,09,17,22.60
2006,12,24,09,18,19.60
2006,12,24,09,19,26.60
2006,12,24,09,20,22.00
2006,12,24,09,21,16.40
2006,12,24,09,22,26.10
2006,12,24,09,23,15.90
2006,12,24,09,24,15.30
2006,12,24,09,25,22.00
2006,12,24,09,26,22.20
2006,12,24,09,27,25.40
2006,12,24,09,28,34.20
2006,12,24,09,29,27.40
2006,12,24,09,30,23.40
2006,12,24,09,31,27.20
2006,12,24,09,32,20.80
2006,12,24,09,33,27.60
2006,12,24,09,34,25.20
2006,12,24,09,35,28.00
2006,12,24,09,36,25.00
2006,12,24,09,37,31.20
2006,12,24,09,38,28.70
2006,12,24,09,39,26.00
2006,12,24,09,40,28.70
2006,12,24,09,41,34.10
2006,12,24,09,42,23.90
2006,12,24,09,43,25.00
2006,12,24,09,44,32.40
2006,12,24,09,45,21.10
2006,12,24,09,46,32.10
2006,12,24,09,47,26.40
2006,12,24,09,48,28.50
2006,12,24,09,49,29.00
2006,12,24,09,50,26.00
2006,12,24,09,51,32.00
2006,12,24,09,52,27.60
2006,12,24,09,53,30.50
2006,12,24,09,54,30.70
2006,12,24,09,55,33.80
2006,12,24,09,56,36.20
2006,12,24,09,57,21.70
2006,12,24,09,58,22.90
2006,12,24,09,59,27.60
2006,12,24,10,00,31.20
2006,12,24,10,01,34.50
2006,12,24,10,02,33.40
2006,12,24,10,03,32.60
2006,12,24,10,04,30.60
2006,12,24,10,05,35.50
2006,12,24,10,06,40.50
2006,12,24,10,07,35.80
2006,12,24,10,08,37.30
2006,12,24,10,09,46.20
2006,12,24,10,10,29.50
2006,12,24,10,11,26.90
2006,12,24,10,12,31.30
2006,12,24,10,13,40.50
2006,12,24,10,14,36.00
2006,12,24,10,15,29.70
2006,12,24,10,16,36.40
2006,12,24,10,17,35.60
2006,12,24,10,18,34.30
2006,12,24,10,19,40.70
2006,12,24,10,20,39.20
2006,12,24,10,21,36.60
2006,12,24,10,22,39.90
2006,12,24,10,23,38.40
2006,12,24,10,24,39.40
2006,12,24,10,25,27.40
2006,12,24,10,26,35.90
2006,12,24,10,27,42.70
2006,12,24,10,28,34.80
2006,12,24,10,29,38.70
2006,12,24,10,30,44.90
2006,12,24,10,31,41.50
2006,12,24,10,32,42.80
2006,12,24,10,33,41.70
2006,12,24,10,34,41.50
2006,12,24,10,35,34.00
2006,12,24,10,36,29.20
2006,12,24,10,37,32.80
2006,12,24,10,38,36.70
2006,12,24,10,39,30.60
2006,12,24,10,40,26.90
2006,12,24,10,41,33.20
2006,12,24,10,42,36.10
2006,12,24,10,43,31.80
2006,12,24,10,44,34.70
2006,12,24,10,45,37.50
2006,12,24,10,46,41.30
2006,12,24,10,47,32.30
2006,12,24,10,48,26.90
2006,12,24,10,49,36.30
2006,12,24,10,50,39.60
2006,12,24,10,51,33.90
2006,12,24,10,52,25.80
2006,12,24,10,53,29.90
2006,12,24,10,54,38.90
2006,12,24,10,55,41.20
2006,12,24,10,56,38.40
2006,12,24,10,57,34.90
2006,12,24,10,58,43.50
2006,12,24,10,59,44.10
2006,12,24,11,00,40.90
2006,12,24,11,01,43.30
2006,12,24,11,02,49.30
2006,12,24,11,03,45.30
2006,12,24,11,04,41.90
2006,12,24,11,05,47.20
2006,12,24,11,06,45.50
2006,12,24,11,07,46.90
2006,12,24,11,08,49.90
2006,12,24,11,09,52.20
2006,12,24,11,10,45.00
2006,12,24,11,11,51.40
2006,12,24,11,12,47.20
2006,12,24,11,13,50.10
2006,12,24,11,14,50.10
2006,12,24,11,15,47.30
2006,12,24,11,16,43.70
2006,12,24,11,17,58.80
2006,12,24,11,18,48.70
2006,12,24,11,19,45.30
2006,12,24,11,20,44.80
2006,12,24,11,21,53.70
2006,12,24,11,22,46.40
2006,12,24,11,23,43.60
2006,12,24,11,24,41.00
2006,12,24,11,25,43.00
2006,12,24,11,26,36.10
2006,12,24,11,27,42.70
2006,12,24,11,28,49.20
2006,12,24,11,29,51.00
2006,12,24,11,30,37.80
2006,12,24,11,31,50.30
2006,12,24,11,32,46.00
2006,12,24,11,33,40.60
2006,12,24,11,34,57.40
2006,12,24,11,35,47.30
2006,12,24,11,36,47.10
2006,12,24,11,37,50.00
2006,12,24,11,38,36.70
2006,12,24,11,39,35.60
2006,12,24,11,40,50.80
2006,12,24,11,41,34.10
2006,12,24,11,42,40.10
2006,12,24,11,43,44.40
2006,12,24,11,44,51.80
2006,12,24,11,45,42.80
2006,12,24,11,46,39.40
2006,12,24,11,47,47.70
2006,12,24,11,48,31.50
2006,12,24,11,49,30.40
2006,12,24,11,50,47.70
2006,12,24,11,51,44.10
2006,12,24,11,52,47.40
2006,12,24,11,53,49.40
2006,12,24,11,54,40.50
2006,12,24,11,55,35.30
2006,12,24,11,56,49.00
2006,12,24,11,57,48.60
2006,12,24,11,58,41.80
2006,12,24,11,59,45.70
2006,12,24,12,00,41.70
2006,12,24,12,01,41.90
2006,12,24,12,02,55.40
2006,12,24,12,03,45.90
2006,12,24,12,04,51.70
2006,12,24,12,05,50.00
2006,12,24,12,06,40.80
2006,12,24,12,07,31.00
2006,12,24,12,08,35.10
2006,12,24,12,09,36.30
2006,12,24,12,10,46.60
2006,12,24,12,11,42.70
2006,12,24,12,12,45.10
2006,12,24,12,13,51.10
2006,12,24,12,14,34.90
2006,12,24,12,15,38.30
2006,12,24,12,16,51.00
2006,12,24,12,17,41.20
2006,12,24,12,18,42.70
2006,12,24,12,19,39.90
2006,12,24,12,20,46.70
2006,12,24,12,21,47.10
2006,12,24,12,22,43.50
2006,12,24,12,23,35.20
2006,12,24,12,24,47.70
2006,12,24,12,25,46.00
2006,12,24,12,26,44.30
2006,12,24,12,27,51.30
2006,12,24,12,28,57.40
2006,12,24,12,29,37.40
2006,12,24,12,30,52.00
2006,12,24,12,31,45.60
2006,12,24,12,32,52.10
2006,12,24,12,33,32.00
2006,12,24,12,34,34.40
2006,12,24,12,35,47.70
2006,12,24,12,36,33.90
2006,12,24,12,37,29.20
2006,12,24,12,38,49.90
2006,12,24,12,39,43.10
2006,12,24,12,40,36.20
2006,12,24,12,41,39.50
2006,12,24,12,42,39.40
2006,12,24,12,43,39.90
2006,12,24,12,44,42.90
2006,12,24,12,45,35.00
2006,12,24,12,46,47.10
2006,12,24,12,47,45.80
2006,12,24,12,48,55.00
2006,12,24,12,49,27.80
2006,12,24,12,50,35.50
2006,12,24,12,51,42.30
2006,12,24,12,52,33.80
2006,12,24,12,53,43.80
2006,12,24,12,54,45.20
2006,12,24,12,55,37.00
2006,12,24,12,56,32.30
2006,12,24,12,57,24.50
2006,12,24,12,58,33.50
2006,12,24,12,59,29.00
2006,12,24,13,00,35.80
2006,12,24,13,01,35.80
2006,12,24,13,02,41.90
2006,12,24,13,03,47.80
2006,12,24,13,04,41.00
2006,12,24,13,05,49.90
2006,12,24,13,06,38.50
2006,12,24,13,07,47.40
2006,12,24,13,08,49.60
2006,12,24,13,09,33.80
2006,12,24,13,10,43.30
2006,12,24,13,11,49.80
2006,12,24,13,12,42.80
2006,12,24,13,13,44.00
2006,12,24,13,14,37.20
2006,12,24,13,15,44.20
2006,12,24,13,16,38.20
2006,12,24,13,17,29.00
2006,12,24,13,18,44.50
2006,12,24,13,19,41.60
2006,12,24,13,20,38.10
2006,12,24,13,21,41.80
2006,12,24,13,22,47.70
2006,12,24,13,23,43.20
2006,12,24,13,24,38.80
2006,12,24,13,25,51.30
2006,12,24,13,26,42.00
2006,12,24,13,27,39.30
2006,12,24,13,28,38.30
2006,12,24,13,29,29.90
2006,12,24,13,30,48.00
2006,12,24,13,31,36.60
2006,12,24,13,32,41.00
2006,12,24,13,33,53.10
2006,12,24,13,34,31.50
2006,12,24,13,35,44.80
2006,12,24,13,36,46.40
2006,12,24,13,37,48.10
2006,12,24,13,38,35.90
2006,12,24,13,39,44.70
2006,12,24,13,40,52.10
2006,12,24,13,41,49.80
2006,12,24,13,42,40.00
2006,12,24,13,43,52.30
2006,12,24,13,44,38.50
2006,12,24,13,45,43.50
2006,12,24,13,46,49.70
2006,12,24,13,47,55.10
2006,12,24,13,48,45.70
2006,12,24,13,49,43.40
2006,12,24,13,50,33.70
2006,12,24,13,51,36.00
2006,12,24,13,52,36.30
2006,12,24,13,53,42.50
2006,12,24,13,54,39.60
2006,12,24,13,55,34.30
2006,12,24,13,56,33.80
2006,12,24,13,57,37.30
2006,12,24,13,58,50.40
2006,12,24,13,59,33.80
2006,12,24,14,00,39.80
2006,12,24,14,01,44.90
2006,12,24,14,02,29.00
2006,12,24,14,03,37.20
2006,12,24,14,04,35.30
2006,12,24,14,05,37.90
2006,12,24,14,06,33.60
2006,12,24,14,07,40.90
2006,12,24,14,08,45.60
2006,12,24,14,09,37.30
2006,12,24,14,10,33.10
2006,12,24,14,11,50.60
2006,12,24,14,12,35.40
2006,12,24,14,13,38.70
2006,12,24,14,14,40.10
2006,12,24,14,15,41.40
2006,12,24,14,16,37.10
2006,12,24,14,17,36.40
2006,12,24,14,18,47.20
2006,12,24,14,19,44.10
2006,12,24,14,20,34.50
2006,12,24,14,21,41.00
2006,12,24,14,22,46.30
2006,12,24,14,23,33.50
2006,12,24,14,24,41.40
2006,12,24,14,25,46.20
2006,12,24,14,26,36.20
2006,12,24,14,27,45.50
2006,12,24,14,28,45.40
2006,12,24,14,29,40.80
2006,12,24,14,30,35.50
2006,12,24,14,31,49.20
2006,12,24,14,32,40.10
2006,12,24,14,33,47.30
2006,12,24,14,34,41.00
2006,12,24,14,35,36.30
2006,12,24,14,36,37.90
2006,12,24,14,37,38.00
2006,12,24,14,38,34.60
2006,12,24,14,39,40.30
2006,12,24,14,40,38.60
2006,12,24,14,41,51.60
2006,12,24,14,42,38.60
2006,12,24,14,43,44.20
2006,12,24,14,44,47.90
2006,12,24,14,45,32.80
2006,12,24,14,46,37.20
2006,12,24,14,47,47.10
2006,12,24,14,48,42.10
2006,12,24,14,49,46.60
2006,12,24,14,50,37.50
2006,12,24,14,51,48.70
2006,12,24,14,52,48.80
2006,12,24,14,53,40.30
2006,12,24,14,54,46.90
2006,12,24,14,55,39.70
2006,12,24,14,56,40.70
2006,12,24,14,57,48.80
2006,12,24,14,58,42.60
2006,12,24,14,59,45.20
2006,12,24,15,00,38.60
2006,12,24,15,01,45.70
2006,12,24,15,02,48.00
2006,12,24,15,03,41.50
2006,12,24,15,04,41.20
2006,12,24,15,05,40.00
2006,12,24,15,06,38.90
2006,12,24,15,07,39.30
2006,12,24,15,08,37.20
2006,12,24,15,09,40.10
2006,12,24,15,10,36.90
2006,12,24,15,11,40.20
2006,12,24,15,12,40.00
2006,12,24,15,13,42.30
2006,12,24,15,14,33.10
2006,12,24,15,15,30.20
2006,12,24,15,16,50.00
2006,12,24,15,17,57.00
2006,12,24,15,18,32.20
2006,12,24,15,19,43.40
2006,12,24,15,20,46.40
2006,12,24,15,21,42.10
2006,12,24,15,22,29.70
2006,12,24,15,23,42.80
2006,12,24,15,24,40.70
2006,12,24,15,25,39.20
2006,12,24,15,26,41.80
2006,12,24,15,27,38.30
2006,12,24,15,28,35.20
2006,12,24,15,29,32.00
2006,12,24,15,30,42.30
2006,12,24,15,31,34.70
2006,12,24,15,32,40.60
2006,12,24,15,33,36.30
2006,12,24,15,34,37.10
2006,12,24,15,35,29.30
2006,12,24,15,36,32.50
2006,12,24,15,37,38.30
2006,12,24,15,38,36.40
2006,12,24,15,39,30.20
2006,12,24,15,40,40.90
2006,12,24,15,41,35.70
2006,12,24,15,42,32.30
2006,12,24,15,43,41.10
2006,12,24,15,44,31.90
2006,12,24,15,45,32.80
2006,12,24,15,46,36.10
2006,12,24,15,47,30.90
2006,12,24,15,48,32.90
2006,12,24,15,49,33.40
2006,12,24,15,50,35.10
2006,12,24,15,51,26.70
2006,12,24,15,52,37.40
2006,12,24,15,53,42.00
2006,12,24,15,54,35.40
2006,12,24,15,55,29.80
2006,12,24,15,56,40.70
2006,12,24,15,57,33.50
2006,12,24,15,58,29.00
2006,12,24,15,59,31.20
2006,12,24,16,00,31.60
2006,12,24,16,01,30.40
2006,12,24,16,02,28.00
2006,12,24,16,03,36.70
2006,12,24,16,04,35.00
2006,12,24,16,05,33.50
2006,12,24,16,06,35.30
2006,12,24,16,07,24.90
2006,12,24,16,08,32.00
2006,12,24,16,09,33.00
2006,12,24,16,10,35.30
2006,12,24,16,11,32.60
2006,12,24,16,12,33.50
2006,12,24,16,13,24.60
2006,12,24,16,14,23.80
2006,12,24,16,15,25.60
2006,12,24,16,16,29.00
2006,12,24,16,17,45.20
2006,12,24,16,18,39.20
2006,12,24,16,19,26.50
2006,12,24,16,20,30.20
2006,12,24,16,21,24.50
2006,12,24,16,22,25.60
2006,12,24,16,23,32.90
2006,12,24,16,24,33.70
2006,12,24,16,25,33.80
2006,12,24,16,26,33.10
2006,12,24,16,27,28.60
2006,12,24,16,28,30.60
2006,12,24,16,29,27.00
2006,12,24,16,30,23.30
2006,12,24,16,31,24.50
2006,12,24,16,32,29.20
2006,12,24,16,33,32.30
2006,12,24,16,34,32.00
2006,12,24,16,35,25.90
2006,12,24,16,36,33.20
2006,12,24,16,37,31.70
2006,12,24,16,38,27.40
2006,12,24,16,39,24.80
2006,12,24,16,40,29.90
2006,12,24,16,41,25.40
2006,12,24,16,42,29.20
2006,12,24,16,43,23.60
2006,12,24,16,44,25.40
2006,12,24,16,45,22.10
2006,12,24,16,46,26.20
2006,12,24,16,47,33.10
2006,12,24,16,48,24.00
2006,12,24,16,49,23.20
2006,12,24,16,50,24.80
2006,12,24,16,51,29.20
2006,12,24,16,52,26.90
2006,12,24,16,53,26.00
2006,12,24,16,54,23.80
2006,12,24,16,55,28.50
2006,12,24,16,56,24.80
2006,12,24,16,57,25.70
2006,12,24,16,58,24.60
2006,12,24,16,59,26.10
2006,12,24,17,00,32.50
2006,12,24,17,01,31.00
2006,12,24,17,02,29.20
2006,12,24,17,03,30.20
2006,12,24,17,04,24.10
2006,12,24,17,05,22.40
2006,12,24,17,06,24.30
2006,12,24,17,07,27.40
2006,12,24,17,08,24.50
2006,12,24,17,09,23.00
2006,12,24,17,10,25.50
2006,12,24,17,11,25.50
2006,12,24,17,12,28.10
2006,12,24,17,13,28.00
2006,12,24,17,14,25.20
2006,12,24,17,15,25.50
2006,12,24,17,16,21.50
2006,12,24,17,17,18.00
2006,12,24,17,18,26.90
2006,12,24,17,19,26.20
2006,12,24,17,20,24.50
2006,12,24,17,21,22.40
2006,12,24,17,22,21.70
2006,12,24,17,23,22.70
2006,12,24,17,24,17.90
2006,12,24,17,25,21.40
2006,12,24,17,26,25.00